Find Starlink 32466

NORAD ID: 61859 Int'l Des: 2024-202 Owner: SPXS Country: US Constellation: starlink operational
LEOCIRCULAR

实时位置

正在加载3D地球...

关于 Starlink 32466

正在加载描述...

即将过境

Passes for default location (London). Set your location on the main map for personalized predictions.

高度历史

Loading altitude history...

两行轨道根数

1 61859U 24202Q 26126.40077306 -.00003430 00000-0 -11517-3 0 9993
2 61859 42.9990 272.0762 0001687 179.9467 180.1385 15.27582463 84163
Epoch: May 6, 2026 • Age: 12 hours

当前状态

高度 482.7 km
速度 7.63 km/s
星下点 29.19°N, 129.81°W
发射日期 Nov 7, 2024
运行时间 1.4 years
类型 internet

技术详情

分类 Payload
质量 730.00 kg
干质量 700.00 kg
总质量 730.00 kg
长度 0.30 m
直径 4.10 m
跨度 29.00 m
形状 Box + pan
制造商 SPXS
平台类型 Starlink V2M
阶段状态 In Orbit
所有者/国家 SPXS/US

Most Searched